TimeMST,TemperatureF,Dew PointF,Humidity,Sea Level PressureIn,VisibilityMPH,Wind Direction,Wind SpeedMPH,Gust SpeedMPH,PrecipitationIn,Events,Conditions,WindDirDegrees,DateUTC
12:53 AM,32.0,21.9,66,29.92,10.0,NE,11.5,-,N/A,,Overcast,50,2013-02-08 07:53:00
1:53 AM,33.1,21.0,61,29.90,10.0,NNE,11.5,-,N/A,,Overcast,30,2013-02-08 08:53:00
2:53 AM,33.1,21.0,61,29.89,10.0,NE,11.5,-,N/A,,Overcast,40,2013-02-08 09:53:00
3:53 AM,30.0,24.1,79,29.88,10.0,South,4.6,-,N/A,,Overcast,170,2013-02-08 10:53:00
4:53 AM,30.9,24.1,76,29.89,10.0,SE,3.5,-,N/A,,Overcast,130,2013-02-08 11:53:00
5:53 AM,30.0,25.0,82,29.90,10.0,Calm,Calm,-,N/A,,Overcast,0,2013-02-08 12:53:00
6:43 AM,28.4,24.8,86,29.84,4.0,Calm,Calm,-,0.00,Snow,Light Snow,0,2013-02-08 13:43:00
6:53 AM,28.9,25.0,85,29.90,4.0,Calm,Calm,-,0.00,Snow,Light Snow,0,2013-02-08 13:53:00
7:20 AM,28.4,26.6,93,29.83,6.0,West,4.6,-,0.00,Snow,Light Snow,270,2013-02-08 14:20:00
7:53 AM,28.0,26.1,92,29.89,10.0,WNW,5.8,-,0.00,,Overcast,300,2013-02-08 14:53:00
8:21 AM,28.4,26.6,93,29.83,8.0,West,5.8,-,N/A,,Overcast,270,2013-02-08 15:21:00
8:29 AM,28.4,26.6,93,29.83,4.0,West,4.6,-,0.00,Snow,Light Snow,280,2013-02-08 15:29:00
8:40 AM,28.4,26.6,93,29.83,1.8,West,5.8,-,0.00,Snow,Light Snow,280,2013-02-08 15:40:00
8:53 AM,28.0,27.0,96,29.89,1.5,West,5.8,-,0.00,Snow,Light Snow,280,2013-02-08 15:53:00
9:53 AM,28.0,27.0,96,29.89,1.5,West,8.1,-,0.00,Snow,Light Snow,260,2013-02-08 16:53:00
10:53 AM,28.9,28.0,96,29.88,1.2,West,6.9,-,0.00,Snow,Light Snow,270,2013-02-08 17:53:00
11:09 AM,28.4,28.4,100,29.82,0.8,West,8.1,-,0.00,Snow,Light Snow,280,2013-02-08 18:09:00
11:24 AM,30.2,28.4,93,29.82,1.0,West,9.2,-,0.00,Snow,Light Snow,260,2013-02-08 18:24:00
11:53 AM,30.0,28.0,92,29.88,1.2,WSW,6.9,-,0.00,Snow,Light Snow,250,2013-02-08 18:53:00
11:58 AM,30.2,28.4,93,29.82,0.8,West,6.9,-,0.00,Snow,Light Snow,260,2013-02-08 18:58:00
12:19 PM,30.2,28.4,93,29.80,1.0,West,8.1,-,0.00,Snow,Light Snow,270,2013-02-08 19:19:00
12:49 PM,30.2,28.4,93,29.79,3.0,West,9.2,-,0.02,Snow,Light Snow,260,2013-02-08 19:49:00
12:53 PM,30.0,28.0,92,29.84,5.0,West,9.2,-,0.03,Snow,Light Snow,270,2013-02-08 19:53:00
1:53 PM,30.0,28.9,96,29.82,1.5,WSW,10.4,-,0.05,,Overcast,250,2013-02-08 20:53:00
2:18 PM,28.4,28.4,100,29.76,0.8,West,10.4,-,0.01,Snow,Light Snow,260,2013-02-08 21:18:00
2:28 PM,28.4,28.4,100,29.76,1.2,West,10.4,-,0.01,,Overcast,260,2013-02-08 21:28:00
2:53 PM,28.9,28.0,96,29.81,0.5,West,9.2,-,0.01,Fog-Snow,Light Snow,270,2013-02-08 21:53:00
3:30 PM,28.4,28.4,100,29.75,1.8,West,10.4,-,0.00,Snow,Light Snow,270,2013-02-08 22:30:00
3:37 PM,28.4,28.4,100,29.75,2.5,West,9.2,-,0.00,Snow,Light Snow,270,2013-02-08 22:37:00
3:46 PM,28.4,28.4,100,29.75,1.8,West,11.5,-,0.00,Snow,Light Snow,270,2013-02-08 22:46:00
3:53 PM,28.9,28.0,96,29.81,2.5,West,9.2,-,0.00,Snow,Light Snow,270,2013-02-08 22:53:00
4:16 PM,30.2,28.4,93,29.75,1.5,West,11.5,-,0.00,Snow,Light Snow,270,2013-02-08 23:16:00
4:53 PM,30.0,28.9,96,29.81,1.2,WNW,9.2,-,0.00,Snow,Light Snow,290,2013-02-08 23:53:00
5:18 PM,30.2,28.4,93,29.75,2.0,WNW,8.1,-,0.00,Snow,Light Snow,290,2013-02-09 00:18:00
5:32 PM,30.2,28.4,93,29.75,3.0,WNW,8.1,-,0.00,Snow,Light Snow,290,2013-02-09 00:32:00
5:41 PM,30.2,28.4,93,29.75,2.0,WNW,8.1,-,0.00,Snow,Light Snow,290,2013-02-09 00:41:00
5:53 PM,30.0,28.9,96,29.81,2.0,WNW,8.1,-,0.00,Snow,Light Snow,290,2013-02-09 00:53:00
6:01 PM,30.2,28.4,93,29.75,1.5,West,8.1,-,0.00,Snow,Light Snow,280,2013-02-09 01:01:00
6:12 PM,30.2,30.2,100,29.75,2.0,West,6.9,-,0.00,Snow,Light Snow,280,2013-02-09 01:12:00
6:23 PM,30.2,30.2,100,29.75,1.2,West,8.1,-,0.00,Snow,Light Snow,280,2013-02-09 01:23:00
6:32 PM,30.2,30.2,100,29.75,0.8,West,6.9,-,0.00,Snow,Light Snow,280,2013-02-09 01:32:00
6:53 PM,30.9,30.0,96,29.82,0.5,West,8.1,-,0.00,Fog-Snow,Light Snow,280,2013-02-09 01:53:00
7:53 PM,30.9,30.0,96,29.82,0.5,West,9.2,-,0.00,Fog-Snow,Light Snow,280,2013-02-09 02:53:00
8:14 PM,30.2,30.2,100,29.76,2.0,West,10.4,-,0.00,,Overcast,280,2013-02-09 03:14:00
8:22 PM,30.2,30.2,100,29.76,9.0,West,9.2,-,0.00,,Overcast,280,2013-02-09 03:22:00
8:50 PM,30.2,28.4,93,29.76,10.0,West,6.9,-,0.00,,Overcast,280,2013-02-09 03:50:00
8:53 PM,30.0,28.9,96,29.83,10.0,West,5.8,-,0.00,,Overcast,280,2013-02-09 03:53:00
9:48 PM,28.4,28.4,100,29.77,7.0,West,6.9,-,0.00,Snow,Light Snow,270,2013-02-09 04:48:00
9:53 PM,28.9,27.0,92,29.84,7.0,West,9.2,-,0.00,Snow,Light Snow,260,2013-02-09 04:53:00
10:53 PM,28.0,26.1,92,29.84,10.0,West,8.1,-,0.00,,Overcast,260,2013-02-09 05:53:00
11:53 PM,27.0,25.0,92,29.84,10.0,West,11.5,-,0.00,,Overcast,270,2013-02-09 06:53:00